Volver al catálogo

COSMOS 2251 DEB

ActivoLEO
NORAD 38199·DEBRIS·🇷🇺 Russia

Lanzado Jun 16, 1993 desde Plesetsk Cosmodrome

Loading…

Próximos Pases (próximas 24 horas)

TLE

ActualizadoSource: Space-Track

Época: Sep 13, 2026, 12:35 UTC

1 38199U 93036BSP 26256.52450578  .00000549  00000-0  44482-3 0  9991
2 38199  73.9581 330.5693 0366768 203.2804 155.1333 13.65180618647714

Sigue COSMOS 2251 DEB en tiempo real con AllMySat

Download on the App Store